GW5048 Weather Reports


Display with metric or nautical units.
time (UTC)temp
F
wind
direction
speed
MPH
gust
MPH
rain 1hr
in
rain 24hr
in
rain mn
in
humidity
%
barometer
mb
20260505075406 47 95 0.0 0.0 0.00 0.00 0.00 88 954.2
20260505074904 47 357 0.0 0.0 0.00 0.00 0.00 89 954.0
20260505074400 47 253 0.0 1.0 0.00 0.00 0.00 89 954.0
20260505073857 47 356 0.0 0.0 0.00 0.00 0.00 89 954.1
20260505073355 47 354 0.0 0.0 0.00 0.00 0.00 89 953.9
20260505072852 47 166 0.0 0.0 0.00 0.00 0.00 89 954.2
20260505072348 47 299 0.0 0.0 0.00 0.00 0.00 88 954.0
20260505071844 47 329 0.0 0.0 0.00 0.00 0.00 89 953.7
20260505071341 47 238 0.0 0.0 0.00 0.00 0.00 89 953.8
20260505070839 47 94 0.0 0.0 0.00 0.00 0.00 89 953.8
20260505070335 47 175 0.0 0.0 0.00 0.00 0.00 88 953.8
20260505065831 47 245 0.0 0.0 0.00 0.00 0.00 89 954.0
20260505065328 47 237 0.0 0.0 0.00 0.00 0.00 88 953.8
20260505064825 47 350 0.0 0.0 0.00 0.00 0.00 88 953.8
20260505064322 48 350 0.0 0.0 0.00 0.00 0.00 88 953.9
20260505063820 48 350 0.0 0.0 0.00 0.00 0.00 87 953.8
20260505063316 49 23 0.0 0.0 0.00 0.00 0.00 85 953.9
20260505062812 49 77 0.0 0.0 0.00 0.00 0.00 86 953.7
20260505062310 49 77 0.0 0.0 0.00 0.00 0.00 85 953.8
20260505061806 49 94 0.0 0.0 0.00 0.00 0.00 84 953.8
20260505061305 50 104 0.0 0.0 0.00 0.00 0.00 82 954.0
20260505060802 50 105 0.0 0.0 0.00 0.00 0.00 81 953.7
20260505060259 50 105 0.0 0.0 0.00 0.00 0.00 81 953.7
20260505055754 50 104 0.0 0.0 0.00 0.00 0.00 81 953.8
20260505055250 50 121 0.0 0.0 0.00 0.00 0.00 81 953.6
20260505054748 50 121 0.0 0.0 0.00 0.00 0.00 82 953.7
20260505054245 50 120 0.0 0.0 0.00 0.00 0.00 80 953.6
20260505053743 50 347 0.0 0.0 0.00 0.00 0.00 81 953.7
20260505053240 50 347 0.0 0.0 0.00 0.00 0.00 81 953.6
20260505052737 50 347 0.0 0.0 0.00 0.00 0.00 82 953.4
20260505052234 50 347 0.0 0.0 0.00 0.00 0.00 81 953.6
20260505051731 51 347 0.0 0.0 0.00 0.00 0.00 82 953.6
20260505051229 51 347 0.0 0.0 0.00 0.00 0.00 81 953.5
20260505050726 51 347 0.0 0.0 0.00 0.00 0.00 81 953.6
20260505050225 51 347 0.0 0.0 0.00 0.00 0.00 81 953.3
20260505041653 53 339 0.0 0.0 0.00 0.00 0.00 78 953.0
20260505041151 53 340 0.0 0.0 0.00 0.00 0.00 73 953.3
20260505040648 53 289 0.0 0.0 0.00 0.00 0.00 74 953.1
20260505040145 53 289 0.0 0.0 0.00 0.00 0.00 76 953.1
20260505035641 53 287 0.0 0.0 0.00 0.00 0.00 72 953.2
20260505035138 53 355 0.0 0.0 0.00 0.00 0.00 73 953.3
20260505034635 53 355 0.0 0.0 0.00 0.00 0.00 75 953.1
20260505034132 53 14 0.0 0.0 0.00 0.00 0.00 74 953.4
20260505033628 53 114 0.0 0.0 0.00 0.00 0.00 72 953.3
20260505033127 52 125 0.0 0.0 0.00 0.00 0.00 75 953.1
20260505032624 53 135 0.0 0.0 0.00 0.00 0.00 75 953.2
20260505032120 53 129 0.0 0.0 0.00 0.00 0.00 73 953.4
20260505031618 53 129 0.0 0.0 0.00 0.00 0.00 73 953.2
20260505031114 0 0.0 0.0 0.00 0.00 0.00 953.3
20260505030611 54 120 0.0 0.0 0.00 0.00 0.00 70 953.2
20260505030108 54 120 0.0 0.0 0.00 0.00 0.00 70 953.3
20260505025603 54 131 0.0 0.0 0.00 0.00 0.00 69 953.2
20260505025102 55 86 0.0 0.0 0.00 0.00 0.00 69 953.3
20260505024558 55 349 0.0 0.0 0.00 0.00 0.00 65 953.4
20260505024056 55 348 0.0 0.0 0.00 0.00 0.00 66 953.3
20260505023554 56 348 0.0 0.0 0.00 0.00 0.00 67 953.3
20260505023051 56 349 0.0 0.0 0.00 0.00 0.00 65 953.2
20260505022548 56 349 0.0 1.0 0.00 0.00 0.00 64 953.2
20260505022045 56 106 0.0 0.0 0.00 0.00 0.00 63 953.3
20260505021542 57 112 0.0 0.0 0.00 0.00 0.00 65 953.2
20260505021038 58 110 0.0 0.0 0.00 0.00 0.00 62 953.3
20260505020532 58 111 0.0 0.0 0.00 0.00 0.00 59 953.2
20260505020029 57 138 0.0 0.0 0.00 0.00 0.00 58 953.2
20260505015527 57 151 0.0 0.0 0.00 0.00 0.00 62 953.2
20260505015023 57 110 0.0 0.0 0.00 0.00 0.00 62 953.0
20260505014520 58 110 0.0 0.0 0.00 0.00 0.00 61 953.2
20260505014018 58 116 0.0 0.0 0.00 0.00 0.00 61 952.9
20260505013515 58 112 0.0 0.0 0.00 0.00 0.00 60 953.3
20260505013012 59 120 0.0 0.0 0.00 0.00 0.00 62 953.1
20260505012510 61 114 0.0 0.0 0.00 0.00 0.00 57 953.4
20260505012006 62 191 0.0 3.0 0.00 0.00 0.00 53 953.2
20260505011502 61 121 0.0 0.0 0.00 0.00 0.00 52 953.3
20260505010959 62 241 0.0 2.0 0.00 0.00 0.00 51 953.2
20260505010455 60 185 4.0 6.0 0.00 0.00 0.00 50 953.1
20260505005951 60 260 0.0 1.0 0.00 0.00 0.00 54 952.9
20260505005448 60 239 1.0 2.0 0.00 0.00 0.00 53 952.9
20260505004946 60 352 0.0 0.0 0.00 0.00 0.00 56 953.0
20260505004442 60 85 0.0 0.0 0.00 0.00 0.00 57 953.0
20260505003939 60 85 0.0 0.0 0.00 0.00 0.00 57 953.0
20260505003436 61 314 0.0 0.0 0.00 0.00 0.00 59 952.9
20260505002932 62 304 0.0 0.0 0.00 0.00 0.00 55 952.8
20260505002429 62 304 0.0 1.0 0.00 0.00 0.00 52 952.9
20260505001927 63 241 0.0 1.0 0.00 0.00 0.00 50 952.7
20260505001425 63 162 0.0 0.0 0.00 0.00 0.00 48 952.7
20260505000921 63 159 0.0 0.0 0.00 0.00 0.00 49 952.8
20260505000420 64 186 0.0 1.0 0.00 0.00 0.00 49 952.8
20260504235916 65 277 0.0 1.0 0.00 0.00 0.00 48 952.7
20260504235413 65 219 0.0 2.0 0.00 0.00 0.00 45 952.5
20260504234910 65 234 0.0 0.0 0.00 0.00 0.00 43 952.6
20260504234407 66 294 0.0 0.0 0.00 0.00 0.00 45 952.5
20260504233903 67 294 0.0 0.0 0.00 0.00 0.00 43 952.5
20260504233359 68 230 1.0 2.0 0.00 0.00 0.00 39 952.6
20260504232856 67 267 0.0 1.0 0.00 0.00 0.00 42 952.5
20260504232353 68 272 1.0 4.0 0.00 0.00 0.00 42 952.7
20260504231850 69 270 2.0 4.0 0.00 0.00 0.00 39 952.4
20260504231346 68 240 1.0 4.0 0.00 0.00 0.00 39 952.5
20260504230842 67 212 2.0 2.0 0.00 0.00 0.00 43 952.5
20260504230340 67 270 0.0 0.0 0.00 0.00 0.00 42 952.6
20260504225839 67 259 0.0 0.0 0.00 0.00 0.00 44 952.5
20260504225335 68 330 1.0 3.0 0.00 0.00 0.00 42 952.5
20260504224833 69 0 1.0 1.0 0.00 0.00 0.00 40 952.6
20260504224330 69 232 2.0 7.0 0.00 0.00 0.00 39 952.5
20260504223826 69 184 5.0 8.0 0.00 0.00 0.00 38 952.6
20260504223321 71 270 0.0 4.0 0.00 0.00 0.00 38 952.5
20260504222818 72 62 5.0 9.0 0.00 0.00 0.00 38 952.6
20260504222315 71 235 2.0 4.0 0.00 0.00 0.00 38 952.7
20260504221814 71 258 4.0 6.0 0.00 0.00 0.00 37 952.5
20260504221310 72 260 1.0 2.0 0.00 0.00 0.00 38 952.7
20260504220807 72 226 2.0 3.0 0.00 0.00 0.00 37 952.5
20260504220304 72 230 3.0 6.0 0.00 0.00 0.00 39 952.7
20260504215802 72 218 2.0 4.0 0.00 0.00 0.00 37 952.8
20260504215258 72 221 1.0 6.0 0.00 0.00 0.00 41 952.6
20260504214754 72 279 2.0 3.0 0.00 0.00 0.00 40 952.8
20260504214251 72 231 2.0 4.0 0.00 0.00 0.00 43 952.8
20260504213747 72 226 1.0 4.0 0.00 0.00 0.00 44 952.7
20260504213243 73 85 2.0 3.0 0.00 0.00 0.00 40 952.7
20260504212741 71 222 2.0 2.0 0.00 0.00 0.00 46 952.9
20260504212237 71 250 0.0 0.0 0.00 0.00 0.00 47 952.7
20260504211735 71 351 1.0 2.0 0.00 0.00 0.00 45 952.7
20260504211231 70 256 0.0 0.0 0.00 0.00 0.00 47 952.7
20260504210728 70 285 0.0 0.0 0.00 0.00 0.00 46 952.8
20260504210226 70 209 1.0 1.0 0.00 0.00 0.00 50 953.0
20260504205722 70 145 2.0 3.0 0.00 0.00 0.00 46 952.9
20260504205220 69 312 1.0 3.0 0.00 0.00 0.00 52 952.9
20260504204718 69 252 1.0 3.0 0.00 0.00 0.00 47 953.1
20260504204216 67 254 1.0 2.0 0.00 0.00 0.00 53 953.2
20260504203715 67 243 1.0 2.0 0.00 0.00 0.00 55 953.0
20260504203212 68 10 1.0 7.0 0.00 0.00 0.00 52 953.2
20260504202712 69 314 0.0 2.0 0.00 0.00 0.00 55 953.5
20260504202209 67 273 0.0 3.0 0.00 0.00 0.00 58 953.7
20260504201706 65 263 0.0 4.0 0.00 0.00 0.00 58 953.3
20260504201204 63 274 2.0 7.0 0.00 0.00 0.00 57 953.5
20260504200701 62 124 1.0 3.0 0.00 0.00 0.00 61 953.5
20260504200157 61 305 3.0 4.0 0.00 0.00 0.00 66 953.7
20260504195653 58 7 1.0 3.0 0.00 0.00 0.00 73 953.4
20260504195149 58 90 4.0 4.0 0.00 0.00 0.00 80 953.4
20260504194646 60 9 3.0 4.0 0.00 0.00 0.00 81 953.8
20260504194142 64 279 0.0 1.0 0.00 0.00 0.00 66 953.8
20260504193639 65 200 2.0 4.0 0.00 0.00 0.00 51 953.6
20260504193137 66 187 1.0 3.0 0.00 0.00 0.00 47 953.3
20260504192635 67 229 0.0 3.0 0.00 0.00 0.00 46 953.2
20260504192133 69 230 2.0 6.0 0.00 0.00 0.00 45 953.3
20260504191631 67 225 1.0 2.0 0.00 0.00 0.00 48 953.5
20260504191127 68 189 2.0 4.0 0.00 0.00 0.00 47 953.7
20260504190623 68 205 2.0 6.0 0.00 0.00 0.00 47 953.8
20260504190120 68 249 3.0 6.0 0.00 0.00 0.00 47 953.9
20260504185616 68 143 0.0 0.0 0.00 0.00 0.00 52 954.1
20260504185113 68 249 2.0 8.0 0.00 0.00 0.00 50 953.9
20260504184609 67 165 4.0 7.0 0.00 0.00 0.00 49 954.1
20260504184104 67 216 0.0 8.0 0.00 0.00 0.00 47 953.8
20260504183601 67 120 2.0 4.0 0.00 0.00 0.00 49 953.6
20260504183059 67 225 4.0 6.0 0.00 0.00 0.00 47 953.9
20260504182556 66 188 4.0 6.0 0.00 0.00 0.00 48 954.1
20260504182053 66 305 4.0 8.0 0.00 0.00 0.00 50 953.9
20260504181550 66 221 4.0 10.0 0.00 0.00 0.00 52 954.2
20260504181048 66 230 2.0 8.0 0.00 0.00 0.00 50 953.8
20260504180547 65 176 4.0 6.0 0.00 0.00 0.00 53 954.0
20260504180046 64 289 1.0 2.0 0.00 0.00 0.00 56 954.1
20260504175542 64 265 2.0 4.0 0.00 0.00 0.00 55 954.1
20260504175039 64 253 1.0 4.0 0.00 0.00 0.00 54 954.2
20260504174537 62 251 6.0 9.0 0.00 0.00 0.00 54 954.4
20260504174034 62 224 3.0 4.0 0.00 0.00 0.00 55 954.3
20260504173531 64 232 1.0 4.0 0.00 0.00 0.00 54 954.4
20260504173028 64 203 1.0 6.0 0.00 0.00 0.00 57 954.3
20260504172524 62 298 1.0 4.0 0.00 0.00 0.00 55 954.5
20260504172021 62 326 2.0 4.0 0.00 0.00 0.00 56 954.7
20260504171518 61 179 3.0 3.0 0.00 0.00 0.00 59 954.6
20260504171015 60 184 4.0 8.0 0.00 0.00 0.00 58 954.9
20260504170510 60 199 2.0 4.0 0.00 0.00 0.00 58 955.0
20260504160431 61 200 2.0 3.0 0.00 0.00 0.00 57 955.9
20260504150854 59 168 2.0 2.0 0.00 0.00 0.00 56 955.8
20260504150351 59 162 1.0 2.0 0.00 0.00 0.00 55 955.8
20260504141321 55 239 1.0 2.0 0.00 0.00 0.00 57 956.2
20260504140817 55 319 1.0 3.0 0.00 0.00 0.00 57 956.1
20260504140313 55 237 1.0 2.0 0.00 0.00 0.00 58 956.1
20260504130742 52 184 1.0 2.0 0.00 0.00 0.00 61 956.1
20260504130238 51 203 0.0 1.0 0.00 0.00 0.00 60 956.4
20260504120202 41 136 0.0 0.0 0.00 0.00 0.00 85 955.5
20260504110629 37 288 0.0 0.0 0.00 0.00 0.00 86 955.4
20260504110125 37 276 0.0 0.0 0.00 0.00 0.00 86 955.4
20260504100551 37 110 0.0 0.0 0.00 0.00 0.00 87 955.7
20260504081944 38 28 0.0 0.0 0.00 0.00 0.00 83 955.9
20260504081441 39 29 0.0 0.0 0.00 0.00 0.00 83 955.9
20260504080937 40 101 0.0 0.0 0.00 0.00 0.00 83 955.8
20260504080434 40 101 0.0 0.0 0.00 0.00 0.00 83 955.8